Location: *
(43.9905°S, 176.4941°W)
Time: 01:57:29
(UTC+00:00)

Cosmos 2278 Rocket - Pass Details

Date: 08 December 2019
Orbit: 843 x 844 km, 71.0° (Epoch: 22 January)

Event Time Altitude Azimuth Distance (km) Brightness Sun altitude
Rises 07:49:45 0° 344° (NNW) 3,393 5.1 -5.4°
Reaches altitude 10° 07:52:12 10° 347° (NNW) 2,466 4.4 -5.7°
Maximum altitude 07:57:49 69° 68° (ENE) 910 2.2 -6.5°
Drops below altitude 10° 08:03:31 10° 150° (SSE) 2,497 4.8 -7.3°
Sets 08:06:00 0° 152° (SSE) 3,439 5.6 -7.6°
